sat.trackr.live / text

‹ back to catalog

ONEWEB-0155

NORAD 48057 · 2021-025R

PAYLOAD ACTIVE UNKNOWN

§ Identity

Operator
Country
UK
Launch date
2021-03-25
Launch site
VOSTO
Launch vehicle
Mass (kg)
RCS (m²)

Purposes: comms

External: N2YO · Heavens-Above · Gunter

§ Orbital elements

Epoch: 2026-09-19T10:40:16.232448Z

Period
109.63 min
Inclination
87.8922°
Eccentricity
0.0001827
Mean motion
13.13471068 rev/d
Perigee alt
1,208.4 km
Apogee alt
1,211.1 km
Semi-major
7,587.9 km
B*
-7.9716e-4
RAAN
301.4698°
Arg perigee
97.3427°
Mean anomaly
262.7910°
Rev number
26,605

§ Raw data

ONEWEB-01551 48057U 21025R   26262.44463232 -.00000278  00000+0 -79716-3 0  99912 48057  87.8922 301.4698 0001827  97.3427 262.7910 13.13471068266053

JSON: /api/v1/satellites/48057 · /tle

For live sub-satellite position, see the globe view (requires WebGL).

§ Visibility from observer

Set your observer location to see the next 7 days of passes ≥ 10°. The values pass through the URL so the page stays shareable.

No JS? Fill the form by hand. The geolocation button needs JavaScript.